Weather History for Thermopolis, WY

Change the Weather History Date:

Wednesday, February 13, 2013

  Actual Average (KWRL) Record (KWRL)
Temperature  
Mean Temperature 25 °F 23 °F  
Max Temperature 33 °F 36 °F 58 °F (1967)
Min Temperature 17 °F 9 °F -13 °F (2004)
Degree Days  
Heating Degree Days 40 42  
Month to date heating degree days 575  
Since 1 July heating degree days 5423  
Cooling Degree Days 0 0  
Month to date cooling degree days 0  
Year to date cooling degree days 0  
Moisture  
Dew Point 14 °F    
Average Humidity 61    
Maximum Humidity 93    
Minimum Humidity 41    
Precipitation  
Precipitation 0.00 in 0.01 in 0.20 in (1967)
Month to date precipitation 0.08  
Year to date precipitation 0.31  
Sea Level Pressure  
Sea Level Pressure 30.00 in    
Wind  
Wind Speed 10 mph (NW)    
Max Wind Speed 17 mph    
Max Gust Speed 22 mph    
Visibility 10 miles    
Events      
T = Trace of Precipitation, MM = Missing Value Source: NWS Daily Summary

Daily Weather History Graph

Daily Weather History Graph

Search for Another Location

Airport:

Trip Planner

Search our weather history database for the weather conditions in past years. The results will help you decide how hot, cold, wet, or windy it might be!

Date:

Astronomy

Feb. 13, 2013 Rise Set
Actual Time 7:13 AM MST 5:41 PM MST
Civil Twilight 6:44 AM MST 6:10 PM MST
Nautical Twilight 6:10 AM MST 6:44 PM MST
Astronomical Twilight 5:37 AM MST 7:17 PM MST
Moon 8:36 AM MST (2/13) 9:56 PM MST (2/13)
Length of Visible Light 11h 26m
Length of Day
10h 27m
Waxing Crescent, 14% of the Moon is Illuminated
Feb 13
Waxing Crescent
Feb 17
First Quarter
Feb 25
Full
Mar 4
Last Quarter
Mar 11
New

Hourly Weather History & Observations

Time (MST) Temp. Windchill Dew Point Humidity Pressure Visibility Wind Dir Wind Speed Gust Speed Precip Events Conditions
12:15 AM 26.6 °F 16.8 °F 12.2 °F 55% 30.00 in - SSE 10.4 mph - N/A   Clear
12:35 AM 23.0 °F 12.4 °F 10.4 °F 59% 30.00 in - SSE 10.4 mph - N/A   Clear
12:55 AM 21.2 °F 12.6 °F 10.4 °F 63% 30.00 in - SSE 6.9 mph - N/A   Clear
1:15 AM 19.4 °F 6.6 °F 8.6 °F 63% 29.99 in - ESE 12.7 mph - N/A   Clear
1:35 AM 19.4 °F 6.6 °F 10.4 °F 68% 29.98 in - SE 12.7 mph - N/A   Clear
1:55 AM 17.6 °F 5.7 °F 6.8 °F 63% 29.98 in - SE 10.4 mph - N/A   Clear
2:15 AM 17.6 °F 3.7 °F 8.6 °F 68% 29.97 in - SE 13.8 mph - N/A   Clear
2:35 AM 17.6 °F 3.2 °F 8.6 °F 68% 29.96 in - SE 15.0 mph - N/A   Clear
2:55 AM 17.6 °F 6.4 °F 8.6 °F 68% 29.96 in - SE 9.2 mph - N/A   Clear
3:15 AM 19.4 °F 12.8 °F 10.4 °F 68% 29.96 in - SSE 4.6 mph - N/A   Clear
3:35 AM 24.8 °F 17.9 °F 12.2 °F 59% 29.97 in - West 5.8 mph - N/A   Clear
3:55 AM 24.8 °F 16.1 °F 10.4 °F 54% 29.97 in - WNW 8.1 mph - N/A   Clear
4:15 AM 24.8 °F 16.1 °F 12.2 °F 59% 29.97 in - NW 8.1 mph - N/A   Clear
4:35 AM 28.4 °F 20.4 °F 12.2 °F 51% 29.96 in - WNW 8.1 mph - N/A   Clear
4:55 AM 30.2 °F 25.4 °F 10.4 °F 44% 29.96 in - NW 4.6 mph - N/A   Clear
5:15 AM 32.0 °F 27.5 °F 10.4 °F 41% 29.97 in - WNW 4.6 mph - N/A   Clear
5:35 AM 26.6 °F 16.8 °F 12.2 °F 55% 29.97 in - SSW 10.4 mph - N/A   Clear
5:55 AM 24.8 °F 16.1 °F 12.2 °F 59% 29.97 in - SW 8.1 mph - N/A   Clear
6:35 AM 28.4 °F 21.2 °F 12.2 °F 51% 29.98 in - WSW 6.9 mph - N/A   Clear
6:55 AM 30.2 °F 21.3 °F 12.2 °F 47% 29.98 in - WSW 10.4 mph - N/A   Clear
7:15 AM 30.2 °F 20.8 °F 12.2 °F 47% 29.98 in - WNW 11.5 mph - N/A   Clear
7:35 AM 30.2 °F 19.8 °F 12.2 °F 47% 29.98 in - WNW 13.8 mph - N/A   Clear
7:55 AM 30.2 °F 22.6 °F 12.2 °F 47% 29.98 in - West 8.1 mph 21.9 mph N/A   Clear
8:15 AM 30.2 °F 21.9 °F 12.2 °F 47% 29.98 in - West 9.2 mph - N/A   Clear
8:35 AM 30.2 °F 23.4 °F 12.2 °F 47% 29.99 in - West 6.9 mph - N/A   Clear
9:15 AM 30.2 °F 21.3 °F 14.0 °F 51% 29.99 in - SSW 10.4 mph - N/A   Clear
9:35 AM 30.2 °F 20.2 °F 14.0 °F 51% 29.99 in - SSW 12.7 mph - N/A   Clear
9:55 AM 30.2 °F 21.3 °F 14.0 °F 51% 29.98 in - South 10.4 mph - N/A   Clear
10:15 AM 32.0 °F 24.2 °F 14.0 °F 48% 29.99 in - South 9.2 mph - N/A   Clear
10:35 AM 32.0 °F 27.5 °F 14.0 °F 48% 29.99 in - South 4.6 mph - N/A   Clear
10:55 AM 32.0 °F 27.5 °F 12.2 °F 44% 30.00 in - SE 4.6 mph - N/A   Clear
11:15 AM 32.0 °F - 12.2 °F 44% 30.00 in - Calm Calm - N/A   Clear
11:35 AM 33.8 °F - 12.2 °F 41% 30.00 in 10.0 mi Calm Calm - N/A   Clear
11:55 AM 32.0 °F 24.2 °F 12.2 °F 44% 30.00 in 10.0 mi NW 9.2 mph - N/A   Clear
12:15 PM 32.0 °F 23.0 °F 14.0 °F 48% 29.99 in 10.0 mi NW 11.5 mph - N/A   Clear
12:35 PM 32.0 °F 22.1 °F 14.0 °F 48% 29.98 in 10.0 mi NW 13.8 mph - N/A   Clear
12:55 PM 32.0 °F 23.6 °F 14.0 °F 48% 29.98 in 10.0 mi NW 10.4 mph - N/A   Clear
1:15 PM 32.0 °F 23.6 °F 14.0 °F 48% 29.97 in 10.0 mi NW 10.4 mph - N/A   Clear
1:35 PM 32.0 °F 24.8 °F 14.0 °F 48% 29.98 in 10.0 mi WNW 8.1 mph - N/A   Clear
1:55 PM 32.0 °F 27.5 °F 12.2 °F 44% 29.98 in 10.0 mi WNW 4.6 mph - N/A   Clear
2:15 PM 32.0 °F - 12.2 °F 44% 29.97 in 10.0 mi Calm Calm - N/A   Clear
2:35 PM 32.0 °F 27.5 °F 12.2 °F 44% 29.98 in 10.0 mi WNW 4.6 mph - N/A   Clear
2:55 PM 32.0 °F 24.2 °F 14.0 °F 48% 29.98 in 10.0 mi West 9.2 mph - N/A   Clear
3:15 PM 32.0 °F 26.4 °F 14.0 °F 48% 29.98 in 10.0 mi WNW 5.8 mph - N/A   Clear
3:35 PM 32.0 °F 22.5 °F 14.0 °F 48% 29.98 in 10.0 mi WNW 12.7 mph 16.1 mph N/A   Scattered Clouds
3:55 PM 32.0 °F 23.6 °F 14.0 °F 48% 29.99 in 10.0 mi WNW 10.4 mph 17.3 mph N/A   Clear
4:15 PM 32.0 °F 24.2 °F 14.0 °F 48% 30.00 in 10.0 mi NNW 9.2 mph - N/A   Clear
4:35 PM 30.2 °F 19.3 °F 17.6 °F 60% 30.00 in 10.0 mi NNW 15.0 mph - N/A   Clear
4:55 PM 28.4 °F 18.0 °F 17.6 °F 64% 30.00 in 10.0 mi NNW 12.7 mph - N/A   Clear
5:15 PM 28.4 °F 18.0 °F 17.6 °F 64% 30.00 in 10.0 mi NNW 12.7 mph - N/A   Clear
5:35 PM 28.4 °F 17.5 °F 17.6 °F 64% 30.00 in 10.0 mi NNW 13.8 mph - N/A   Clear
5:55 PM 26.6 °F 14.3 °F 17.6 °F 69% 30.00 in 10.0 mi NNW 16.1 mph - N/A   Clear
6:15 PM 26.6 °F 15.7 °F 17.6 °F 69% 30.02 in 10.0 mi NNW 12.7 mph - N/A   Clear
6:35 PM 26.6 °F 13.8 °F 17.6 °F 69% 30.02 in 10.0 mi NNW 17.3 mph - N/A   Clear
6:55 PM 24.8 °F 14.0 °F 17.6 °F 74% 30.02 in 10.0 mi NNW 11.5 mph - N/A   Clear
7:15 PM 26.6 °F 16.2 °F 17.6 °F 69% 30.03 in 10.0 mi NNW 11.5 mph - N/A   Clear
7:35 PM 24.8 °F 14.6 °F 17.6 °F 74% 30.03 in 10.0 mi NNW 10.4 mph - N/A   Clear
7:55 PM 24.8 °F 12.4 °F 17.6 °F 74% 30.03 in 10.0 mi North 15.0 mph - N/A   Clear
8:15 PM 24.8 °F 12.9 °F 17.6 °F 74% 30.03 in 10.0 mi North 13.8 mph - N/A   Scattered Clouds
8:35 PM 23.0 °F 9.6 °F 19.4 °F 86% 30.03 in 10.0 mi North 16.1 mph - N/A   Scattered Clouds
8:55 PM 23.0 °F 12.4 °F 19.4 °F 86% 30.04 in 10.0 mi NNW 10.4 mph - N/A   Scattered Clouds
9:15 PM 23.0 °F 11.7 °F 19.4 °F 86% 30.04 in 10.0 mi NNW 11.5 mph - N/A   Clear
9:35 PM 23.0 °F 9.6 °F 21.2 °F 93% 30.04 in 10.0 mi NNW 16.1 mph - N/A   Clear
9:55 PM 23.0 °F 10.6 °F 21.2 °F 93% 30.04 in 10.0 mi NNW 13.8 mph - N/A   Scattered Clouds
10:15 PM 23.0 °F 10.1 °F 21.2 °F 93% 30.05 in 10.0 mi North 15.0 mph - N/A   Scattered Clouds
10:35 PM 23.0 °F 10.1 °F 21.2 °F 93% 30.05 in 10.0 mi North 15.0 mph - N/A   Clear
10:55 PM 23.0 °F 11.7 °F 21.2 °F 93% 30.05 in 10.0 mi North 11.5 mph - N/A   Clear
11:15 PM 23.0 °F 10.6 °F 21.2 °F 93% 30.05 in 10.0 mi North 13.8 mph - N/A   Scattered Clouds
11:35 PM 23.0 °F 9.6 °F 21.2 °F 93% 30.06 in 10.0 mi North 16.1 mph - N/A   Mostly Cloudy
11:55 PM 23.0 °F 10.1 °F 21.2 °F 93% 30.06 in 10.0 mi North 15.0 mph - N/A   Overcast